Location: Hope
(40.9110°N, 74.9680°W)
Time: 02:32:24
(UTC-04:00)

Tiangong 2 - Visible Passes

Search period start: 27 April 2018 00:00
Search period end: 07 May 2018 00:00
Orbit: 381 x 388 km, 42.8° (Epoch: 26 April)

Date Brightness Start Highest point End Pass type
(mag) Time Alt. Az. Time Alt. Az. Time Alt. Az.
03 May 3.8 05:09:56 10° SSE 05:11:01 11° SE 05:12:07 10° ESE visible
05 May 3.1 04:46:20 12° S 04:48:14 20° SSE 04:50:37 10° E visible
06 May 3.8 03:49:22 11° SE 03:49:22 11° SE 03:49:51 10° ESE visible
06 May 1.5 05:21:58 10° WSW 05:25:03 54° SSE 05:28:10 10° E visible
